Location: Jalan Sepang
(2.8072°N, 101.8021°E)
Time: 04:45:38
(UTC+00:00)

Exosat Rocket - Pass Details

Date: 15 May 2026
Orbit: 760 x 2513 km, 72.3° (Epoch: 7 June)

Event Time Altitude Azimuth Distance (km) Brightness Sun altitude
Exits shadow 21:12:30 60° 308° (NW) 982 3.8 -26.4°
Drops below altitude 10° 21:17:04 10° 4° (N) 2,324 6.3 -25.3°
Sets 21:19:17 0° 7° (N) 3,211 7.1 -24.8°
